[[{"header":{"parameterUnit":"m.s-1","parameterCategory":1,"la1":30.2991,"la2":30.254,"lo1":-89.0895,"lo2":-89.0444,"dy":0.0017,"dx":0.0017,"nx":28,"ny":28,"refTime":"2024-07-01T09:00:00:Z","depth":0,"parameterNumber":2,"parameterNumberName":"U-component_of_WINDS"},"data":[0,0,0,0,0,0,0,0,0,0,0,0,0,0,0,0,0,0,0,0,0,0,0,0,0,0,0,0,0,0,0,0,0,0,0,0,0,0,0,0,0,0,0,0,0,0,0,0,0,0,0,0,0,0,0,0,0,0,2.4965,2.4967,0,2.5155,2.5157,2.5159,2.5206,2.5205,2.5204,2.5202,2.5396,2.5402,2.5408,0,0,0,0,0,0,0,0,0,0,0,0,0,2.4641,2.4647,2.4965,2.4967,2.497,2.5155,2.5157,2.516,2.5206,2.5205,2.5203,2.5202,2.5394,2.5401,2.5409,0,0,0,0,0,0,0,0,0,0,0,0,0,2.4801,2.4649,2.4964,2.5015,2.5022,2.5154,2.5157,2.5161,2.5207,2.5205,2.5203,2.5201,2.5391,2.54,2.541,2.5505,0,0,2.5439,2.5443,0,0,0,0,0,0,0,0,2.4792,2.4813,2.5005,2.5012,2.5019,2.5155,2.5114,2.5276,2.5207,2.5136,2.5202,2.52,2.5317,2.5333,2.5372,2.5514,2.5522,2.5439,2.5445,2.5449,2.5452,0,0,0,0,0,0,0,2.4781,2.4805,2.504,2.5008,2.5017,2.5028,2.5049,2.5145,2.5235,2.5142,2.5146,2.5168,2.5321,2.5363,2.5377,2.5525,2.5439,2.5448,2.5453,2.5457,2.5754,2.5757,0,0,0,0,0,0,2.4761,2.4796,2.5034,2.5046,2.4899,2.5035,2.5059,2.5113,2.5234,2.525,2.5169,2.517,2.5348,2.5366,2.5384,2.5503,2.5449,2.5458,2.5463,2.5752,2.5755,2.5757,0,0,0,0,0,0,2.4754,2.4782,2.5026,2.4922,2.4954,2.5043,2.5104,2.5118,2.516,2.5254,2.527,2.5196,2.5347,2.5371,2.5475,2.551,2.5462,2.5471,2.575,2.5753,2.5756,2.5741,0,0,0,0,0,0,2.4745,2.4779,2.4817,2.4922,2.4959,2.5114,2.5106,2.5123,2.5177,2.5179,2.5284,2.5299,2.5347,2.546,2.5484,2.5522,2.5478,2.5747,2.5751,2.5755,2.5739,2.5744,2.5748,0,0,0,0,0,2.4733,2.4805,2.4818,2.4847,2.5008,2.5116,2.5137,2.5191,2.5179,2.5217,2.5278,2.5296,2.5503,2.547,2.5498,2.5539,2.5745,2.575,2.5755,2.5737,2.5743,2.5748,0,0,0,0,0,0,2.47,2.482,2.4836,2.4944,2.502,2.5124,2.5173,2.5196,2.5275,2.5274,2.5337,2.5361,2.546,2.5511,2.5472,2.5638,2.5624,2.5634,2.5601,2.5607,2.5611,2.5597,2.5486,0,0,0,0,0,2.4706,2.4784,2.4884,2.497,2.5007,2.5083,2.5133,2.5168,2.5248,2.528,2.5348,2.5425,2.5508,2.556,2.5642,2.5747,2.577,2.5789,2.5794,2.5797,2.5805,2.5863,2.5873,2.5774,2.5774,2.5774,0,0,2.4718,2.4793,2.4838,2.4965,2.5028,2.5107,2.511,2.5194,2.5253,2.5293,2.5395,2.5447,2.5538,2.5642,2.5692,2.5688,2.5837,2.5803,2.5805,2.5811,2.5869,2.5879,2.5887,2.5777,2.5777,2.5776,0,0,2.478,2.4845,2.4923,2.4986,2.5081,2.5131,2.515,2.5251,2.5287,2.5391,2.5423,2.5494,2.5635,2.5697,2.5748,2.5833,2.5853,2.5858,2.5881,2.5937,2.5945,2.5952,2.5981,2.5991,2.5866,2.5866,2.5866,0,2.4782,2.4903,2.496,2.5042,2.5097,2.5138,2.5217,2.5275,2.5391,2.5428,2.5421,2.5599,2.5662,2.5782,2.5803,2.5843,2.5865,2.5846,2.5939,2.5947,2.5955,2.5983,2.5994,2.5866,2.5866,2.5866,2.5866,0,2.4901,2.4984,2.5036,2.5147,2.5208,2.5288,2.5357,2.5412,2.5442,2.5493,2.5597,2.5675,2.5772,2.5804,2.5834,2.5928,2.5922,2.5927,2.5913,2.5963,2.5991,2.6002,2.5866,2.5866,2.5866,2.5866,0,0,2.4946,2.5089,2.5107,2.5158,2.5265,2.5331,2.5413,2.5508,2.5553,2.5632,2.5702,2.582,2.5825,2.5882,2.592,2.597,2.6031,2.5968,2.5971,2.5976,2.6138,2.6133,2.6145,2.6045,2.6048,2.605,2.613,0,2.502,2.5168,2.5223,2.5344,2.5421,2.5461,2.5533,2.5606,2.5656,2.5728,2.5784,2.5866,2.5867,2.5902,2.5953,2.6013,2.6064,2.6008,2.611,2.6113,2.6084,2.616,2.6155,2.6227,2.6142,2.6144,2.6145,0,2.5126,2.5207,2.5336,2.5434,2.5468,2.5531,2.5623,2.5692,2.5776,2.5809,2.5873,2.5907,2.5994,2.5977,2.6096,2.6057,2.6102,2.6138,2.6142,2.6152,2.6131,2.6171,2.6251,2.6261,2.6163,2.6162,2.616,0,2.5145,2.5286,2.5381,2.5423,2.554,2.5584,2.5634,2.5717,2.5771,2.5851,2.5886,2.5975,2.6024,2.6092,2.6149,2.6131,2.6263,2.6251,2.6292,2.629,2.6317,2.6314,2.6404,2.6348,2.6348,2.6348,2.6347,0,2.5221,2.5298,2.5391,2.5449,2.5536,2.5598,2.5682,2.5736,2.5809,2.5878,2.5918,2.5982,2.6055,2.6128,2.6173,2.6265,2.6287,2.6315,2.6326,2.6311,2.6307,2.634,2.6336,2.6351,2.635,2.6349,2.6349,0,2.5256,2.5321,2.5427,2.553,2.5557,2.5617,2.5704,2.5762,2.5814,2.5901,2.5925,2.6007,2.6095,2.6159,2.6273,2.6304,2.6401,2.6413,2.6373,2.6378,2.6415,2.641,2.6528,2.6547,2.6479,2.648,2.648,0,2.5299,2.5359,2.5468,2.5518,2.5568,2.5647,2.5703,2.5766,2.5821,2.5922,2.5967,2.6058,2.6134,2.6273,2.6342,2.643,2.6443,2.6478,2.6456,2.6439,2.6442,2.6437,2.6443,2.6481,2.6481,2.6482,2.6482,0,2.5369,2.5399,2.5477,2.5566,2.5631,2.5705,2.5779,2.5817,2.5893,2.5953,2.6044,2.6103,2.6219,2.6309,2.6403,2.6455,2.6481,2.6489,2.6503,2.6487,2.646,2.6474,2.638,2.6485,2.6485,2.6485,2.6484,2.6484,2.5409,2.5464,2.5549,2.5635,2.5697,2.5766,2.5825,2.5885,2.5962,2.6061,2.6094,2.6187,2.627,2.6399,2.6452,2.6526,2.6525,2.6545,2.655,2.6554,2.6552,2.645,2.6544,2.6544,2.6544,2.6544,2.6544,0,2.548,2.5537,2.5615,2.5718,2.5785,2.5804,2.5887,2.5942,2.6024,2.6099,2.6173,2.6277,2.6364,2.644,2.6531,2.6575,2.6589,2.6596,2.6593,2.6604,2.6549,2.6527,2.6583,2.6583,2.6583,2.6583,2.6583,2.6583,2.5525,2.5619,2.5658,2.5783,2.584,2.5932,2.5978,2.6041,2.6101,2.6215,2.6288,2.6337,2.6413,2.6509,2.6589,2.6609,2.664,2.6644,2.6667,2.6613,2.6608,2.6604,2.6584,2.6651,2.6651,2.6717,2.6717,2.6718]},{"header":{"parameterUnit":"m.s-1","parameterCategory":1,"la1":30.2991,"la2":30.254,"lo1":-89.0895,"lo2":-89.0444,"dy":0.0017,"dx":0.0017,"nx":28,"ny":28,"refTime":"2024-07-01T09:00:00:Z","depth":0,"parameterNumber":3,"parameterNumberName":"V-component_of_WINDS"},"data":[0,0,0,0,0,0,0,0,0,0,0,0,0,0,0,0,0,0,0,0,0,0,0,0,0,0,0,0,0,0,0,0,0,0,0,0,0,0,0,0,0,0,0,0,0,0,0,0,0,0,0,0,0,0,0,0,0,0,3.1791,3.1791,0,3.1791,3.1791,3.1791,3.1767,3.1766,3.1766,3.1765,3.1765,3.1765,3.1766,0,0,0,0,0,0,0,0,0,0,0,0,0,3.1769,3.1769,3.1791,3.1791,3.1791,3.1791,3.1791,3.1791,3.1767,3.1766,3.1766,3.1765,3.1764,3.1765,3.1766,0,0,0,0,0,0,0,0,0,0,0,0,0,3.1775,3.177,3.1791,3.1779,3.1778,3.1791,3.1791,3.1791,3.1767,3.1766,3.1765,3.1765,3.1764,3.1765,3.1766,3.179,0,0,3.1769,3.1769,0,0,0,0,0,0,0,0,3.1774,3.1776,3.1781,3.178,3.1779,3.1778,3.1783,3.1791,3.1768,3.1771,3.1765,3.1764,3.177,3.177,3.1772,3.179,3.179,3.1769,3.1769,3.177,3.177,0,0,0,0,0,0,0,3.1774,3.1775,3.1791,3.1781,3.178,3.1773,3.1773,3.1785,3.1776,3.1771,3.1769,3.177,3.1769,3.1772,3.1772,3.179,3.1769,3.1769,3.177,3.177,3.1829,3.183,0,0,0,0,0,0,3.1775,3.1775,3.1791,3.1791,3.1774,3.1775,3.1774,3.1779,3.1776,3.1774,3.177,3.1768,3.1771,3.1771,3.1772,3.1801,3.177,3.177,3.1771,3.1828,3.183,3.1831,0,0,0,0,0,0,3.1775,3.1777,3.1791,3.1783,3.1784,3.1776,3.1782,3.178,3.1782,3.1775,3.1774,3.1775,3.177,3.1771,3.1786,3.1801,3.1771,3.1772,3.1827,3.1829,3.183,3.1859,0,0,0,0,0,0,3.1775,3.1777,3.1786,3.1783,3.1785,3.1805,3.1783,3.178,3.1784,3.1781,3.1779,3.1777,3.1769,3.1785,3.1787,3.1801,3.1772,3.1826,3.1828,3.183,3.1857,3.1862,3.1866,0,0,0,0,0,3.1774,3.1794,3.1787,3.1789,3.1796,3.1806,3.1807,3.1797,3.1785,3.1794,3.179,3.1778,3.1799,3.1787,3.1789,3.1804,3.1825,3.1827,3.183,3.1855,3.1861,3.1865,0,0,0,0,0,0,3.1799,3.1793,3.1785,3.1805,3.1807,3.1802,3.1814,3.1804,3.1808,3.1805,3.1793,3.1793,3.181,3.1808,3.1795,3.1828,3.181,3.1813,3.1828,3.1834,3.1838,3.1838,3.1773,0,0,0,0,0,3.1807,3.1816,3.181,3.1828,3.183,3.1822,3.1826,3.1818,3.1819,3.1819,3.1816,3.1817,3.1824,3.1828,3.1834,3.1857,3.1856,3.1868,3.1872,3.1876,3.1878,3.1891,3.1896,3.1839,3.1839,3.1839,0,0,3.1823,3.1821,3.1827,3.1833,3.1833,3.1843,3.1822,3.1833,3.184,3.1821,3.1835,3.1833,3.1833,3.1852,3.1861,3.1851,3.1894,3.1879,3.1882,3.1882,3.1894,3.1899,3.1904,3.184,3.184,3.184,0,0,3.1857,3.1857,3.1872,3.1873,3.1874,3.1868,3.1872,3.1869,3.1867,3.1882,3.1868,3.1876,3.1888,3.1889,3.1891,3.1927,3.1916,3.1929,3.1952,3.1964,3.1969,3.1973,3.1986,3.1991,3.1932,3.1932,3.1932,0,3.1877,3.1891,3.1881,3.1893,3.1897,3.188,3.1896,3.1897,3.1899,3.1902,3.1891,3.1907,3.1906,3.1925,3.1934,3.1936,3.194,3.193,3.1969,3.1973,3.1976,3.1989,3.1994,3.1934,3.1933,3.1933,3.1933,0,3.1916,3.1926,3.1939,3.1942,3.1947,3.1961,3.1953,3.1958,3.1951,3.1947,3.1962,3.196,3.1966,3.197,3.1962,3.1989,3.1983,3.1971,3.1953,3.1984,3.1995,3.2,3.1936,3.1935,3.1935,3.1935,0,0,3.1966,3.1965,3.1969,3.1971,3.1971,3.1979,3.1992,3.1998,3.2003,3.2006,3.2017,3.2028,3.2017,3.2019,3.2011,3.2022,3.2052,3.2009,3.2009,3.2017,3.2081,3.2091,3.2097,3.2044,3.2045,3.2046,3.2082,0,3.2,3.2023,3.2015,3.2038,3.2048,3.2033,3.2044,3.2045,3.2042,3.205,3.2045,3.2054,3.2038,3.204,3.205,3.2046,3.2064,3.2043,3.2054,3.2055,3.2055,3.2103,3.2113,3.2147,3.2086,3.2087,3.2087,0,3.2043,3.2048,3.2073,3.2072,3.2076,3.2086,3.2092,3.2099,3.21,3.2097,3.21,3.209,3.2103,3.2085,3.2103,3.2089,3.2093,3.2092,3.2093,3.2094,3.2073,3.2106,3.2157,3.2163,3.2094,3.2094,3.2093,0,3.2078,3.209,3.2107,3.2109,3.2108,3.2116,3.2116,3.2117,3.2121,3.2126,3.2128,3.2134,3.2137,3.2142,3.2134,3.2121,3.2154,3.2134,3.2152,3.2152,3.2159,3.2159,3.2213,3.2161,3.2161,3.2161,3.2161,0,3.2117,3.2133,3.2123,3.2133,3.2151,3.2141,3.2159,3.2157,3.2157,3.2167,3.2154,3.2163,3.2152,3.216,3.2154,3.217,3.2171,3.2169,3.2168,3.2171,3.2171,3.2174,3.2172,3.2162,3.2162,3.2162,3.2161,0,3.2159,3.2153,3.217,3.2169,3.2168,3.2182,3.218,3.2189,3.2185,3.2198,3.22,3.2194,3.2203,3.2195,3.2204,3.22,3.2222,3.2216,3.2222,3.222,3.2238,3.2237,3.2296,3.2304,3.2246,3.2247,3.2247,0,3.2185,3.2197,3.2197,3.2203,3.2204,3.2213,3.2218,3.2209,3.2214,3.2217,3.2226,3.2234,3.224,3.2256,3.2252,3.2259,3.2254,3.2274,3.2254,3.2258,3.2255,3.2255,3.2256,3.2278,3.2279,3.2279,3.228,0,3.2231,3.2228,3.2236,3.2243,3.2249,3.2254,3.2258,3.2263,3.2254,3.2261,3.227,3.2275,3.2285,3.2293,3.2299,3.2298,3.2288,3.2286,3.229,3.2294,3.2297,3.2297,3.2233,3.2285,3.2284,3.2284,3.2283,3.2283,3.2266,3.2277,3.2279,3.2288,3.229,3.2294,3.2303,3.2301,3.2309,3.2316,3.231,3.2322,3.2323,3.233,3.2331,3.234,3.2331,3.2338,3.2339,3.2341,3.2344,3.2295,3.234,3.234,3.234,3.234,3.234,0,3.2313,3.2314,3.2323,3.2329,3.2336,3.2326,3.233,3.2337,3.2347,3.235,3.2356,3.2368,3.2376,3.2373,3.238,3.2388,3.2384,3.2391,3.239,3.2391,3.2351,3.2347,3.2394,3.2394,3.2394,3.2394,3.2394,3.2394,3.2338,3.2356,3.2353,3.2372,3.2372,3.2384,3.2387,3.2391,3.2393,3.2407,3.2414,3.2412,3.2412,3.2419,3.2427,3.2425,3.2429,3.2438,3.2435,3.2398,3.2393,3.2388,3.2384,3.2439,3.2439,3.2474,3.2475,3.2475]}]]